Location: Newark
(49.3000°N, 9.4667°E)
Time: 21:17:48
(UTC+00:00)

S-56A Canister/Altair - Pass Details

Date: 20 May 2019
Orbit: 633 x 2499 km, 38.9° (Epoch: 23 June)

Event Time Altitude Azimuth Distance (km) Brightness Sun altitude
Exits shadow 23:59:52 11° 137° (SE) 3,080 10.3 -20.2°
Maximum altitude 00:00:40 11° 130° (SE) 3,135 10.4 -20.2°
Drops below altitude 10° 00:02:38 10° 116° (ESE) 3,379 10.6 -20.1°
Sets 00:09:25 0° 86° (E) 4,934 11.9 -19.9°
